Location: Vale
(35.4830°N, 81.3830°W)
Time: 09:26:26
(UTC-05:00)

SR - All Passes

Search period start: 08 February 2016 00:00
Search period end: 18 February 2016 00:00
Orbit: 575 x 884 km, 66.7° (Epoch: 08 February)

Date Brightness Start Highest point End Pass type
(mag) Time Alt. Az. Time Alt. Az. Time Alt. Az.
08 Feb - 01:44:47 10° NNE 01:45:57 11° NE 01:47:06 10° NE night (unlit)
08 Feb - 03:23:45 10° NNW 03:29:12 72° ENE 03:34:08 10° SSE night (unlit)
08 Feb - 05:08:52 10° W 05:10:25 11° W 05:11:57 10° WSW night (unlit)
08 Feb - 16:12:12 10° ESE 16:13:54 11° E 16:15:38 10° E daylight
08 Feb - 17:49:22 10° SSW 17:55:10 88° WNW 18:01:10 10° NNE daylight
08 Feb - 19:34:51 10° W 19:38:09 15° NW 19:41:29 10° NNW visible
09 Feb - 02:34:50 10° N 02:39:49 35° NE 02:44:24 10° ESE night (unlit)
09 Feb - 04:17:23 10° NW 04:21:41 26° WSW 04:25:42 10° SSW night (unlit)
09 Feb - 17:00:35 10° S 17:06:04 47° ESE 17:11:45 10° NE daylight
09 Feb - 18:43:34 10° WSW 18:48:26 26° NW 18:53:24 10° N visible
10 Feb - 01:46:24 10° N 01:50:13 19° NE 01:53:48 10° E night (unlit)
10 Feb - 03:27:32 10° NW 03:32:47 56° WSW 03:37:33 10° S night (unlit)
10 Feb - 16:12:41 10° SSE 16:17:09 24° ESE 16:21:45 10° NE daylight
10 Feb - 17:53:20 10° SW 17:58:56 48° WNW 18:04:42 10° NNE daylight
11 Feb - 00:59:50 10° NE 01:00:22 10° NE 01:00:54 10° NE night (unlit)
11 Feb - 02:38:15 10° NNW 02:43:38 69° ENE 02:48:32 10° SE night (unlit)
11 Feb - 04:23:08 10° W 04:24:54 12° W 04:26:37 10° WSW night (unlit)
11 Feb - 15:27:00 10° ESE 15:28:24 11° E 15:29:47 10° E daylight
11 Feb - 17:03:50 10° SSW 17:09:38 89° ESE 17:15:38 10° NNE daylight
11 Feb - 18:49:10 10° W 18:52:36 16° NW 18:56:02 10° N visible
12 Feb - 01:49:20 10° N 01:54:15 34° NE 01:58:46 10° ESE night (unlit)
12 Feb - 03:31:49 10° NW 03:36:10 26° WSW 03:40:12 10° SSW night (unlit)
12 Feb - 16:15:04 10° S 16:20:33 46° ESE 16:26:12 10° NE daylight
12 Feb - 17:57:57 10° WSW 18:02:53 27° NW 18:07:54 10° N daylight
13 Feb - 01:00:57 10° N 01:04:37 18° NE 01:08:06 10° E night (unlit)
13 Feb - 02:42:00 10° NW 02:47:14 58° WSW 02:51:59 10° S night (unlit)
13 Feb - 15:27:13 10° SSE 15:31:37 23° ESE 15:36:08 10° NE daylight
13 Feb - 17:07:44 10° SW 17:13:24 50° WNW 17:19:10 10° NNE daylight
14 Feb - 01:52:43 10° NNW 01:58:05 66° ENE 02:02:56 10° SE night (unlit)
14 Feb - 03:37:25 10° WNW 03:39:22 12° WSW 03:41:16 10° SW night (unlit)
14 Feb - 14:41:58 10° ESE 14:42:52 10° E 14:43:48 10° E daylight
14 Feb - 16:18:18 10° SSW 16:24:06 87° ESE 16:30:06 10° NNE daylight
14 Feb - 18:03:29 10° W 18:07:01 16° NW 18:10:34 10° N daylight
15 Feb - 01:03:51 10° N 01:08:40 32° NE 01:13:07 10° ESE night (unlit)
15 Feb - 02:46:14 10° NW 02:50:37 27° WSW 02:54:41 10° SSW night (unlit)
15 Feb - 15:29:33 10° S 15:35:01 44° ESE 15:40:38 10° NE daylight
15 Feb - 17:12:20 10° WSW 17:17:19 28° NW 17:22:23 10° N daylight
16 Feb - 00:15:30 10° N 00:19:02 17° NE 00:22:24 10° E night (unlit)
16 Feb - 01:56:27 10° NW 02:01:41 60° WSW 02:06:25 10° SSE night (unlit)
16 Feb - 14:41:46 10° SSE 14:46:06 22° ESE 14:50:32 10° ENE daylight
16 Feb - 16:22:10 10° SW 16:27:50 51° WNW 16:33:38 10° NNE daylight
17 Feb - 01:07:11 10° NNW 01:12:30 63° ENE 01:17:19 10° SE night (unlit)
17 Feb - 02:51:42 10° WNW 02:53:49 13° WSW 02:55:53 10° SW night (unlit)
17 Feb - 15:32:44 10° SSW 15:38:34 84° ESE 15:44:33 10° NNE daylight
17 Feb - 17:17:48 10° W 17:21:26 16° NW 17:25:05 10° N daylight
